• In Hungary
  • List of Countries
  • For 7 days
  • Water Temperature
  • Satellite Maps
  • Weather Map
  • News
  • Weather Widgets
  • user-avatar
    Login

    Hourly Weather Ezvino

    Today, 25 May, Friday

    Time Temperature Precipitation Wind Pressure Humidity
    00:00 +11°C° 0 mm 3 mps 752 mmHg 82%
    01:00 +10°C° 0 mm 3 mps 753 mmHg 81%
    02:00 +9°C° 0 mm 3 mps 753 mmHg 80%
    03:00 +9°C° 0 mm 3 mps 754 mmHg 77%
    04:00 +9°C° 0 mm 3 mps 754 mmHg 74%
    05:00 +9°C° 0 mm 3 mps 754 mmHg 71%
    06:00 +11°C° 0 mm 3 mps 755 mmHg 63%
    07:00 +12°C° 0 mm 4 mps 755 mmHg 55%
    08:00 +14°C° 0 mm 4 mps 755 mmHg 46%
    09:00 +15°C° 0 mm 4 mps 756 mmHg 44%
    10:00 +15°C° 0 mm 4 mps 756 mmHg 42%
    11:00 +17°C° 0 mm 4 mps 756 mmHg 40%
    12:00 +18°C° 0 mm 4 mps 756 mmHg 40%
    13:00 +18°C° 0 mm 4 mps 756 mmHg 40%
    14:00 +18°C° 0 mm 4 mps 756 mmHg 40%
    15:00 +18°C° 0 mm 4 mps 756 mmHg 42%
    16:00 +18°C° 0 mm 4 mps 756 mmHg 44%
    17:00 +17°C° 0 mm 3 mps 756 mmHg 46%
    18:00 +16°C° 0 mm 3 mps 756 mmHg 53%
    19:00 +14°C° 0 mm 2 mps 756 mmHg 59%
    20:00 +12°C° 0 mm 2 mps 757 mmHg 65%
    21:00 +10°C° 0 mm 2 mps 757 mmHg 66%
    22:00 +10°C° 0 mm 1 mps 757 mmHg 67%
    23:00 +9°C° 0 mm 1 mps 758 mmHg 69%

    Tomorrow, 26 May, Saturday

    Time Temperature Precipitation Wind Pressure Humidity
    00:00 +9°C° 0 mm 1 mps 758 mmHg 70%
    01:00 +8°C° 0 mm 1 mps 759 mmHg 72%
    02:00 +7°C° 0 mm 0 mps 759 mmHg 74%
    03:00 +8°C° 0 mm 0 mps 759 mmHg 72%
    04:00 +9°C° 0 mm 0 mps 759 mmHg 71%
    05:00 +10°C° 0 mm 0 mps 760 mmHg 69%
    06:00 +12°C° 0 mm 0 mps 760 mmHg 62%
    07:00 +15°C° 0 mm 1 mps 760 mmHg 55%
    08:00 +18°C° 0 mm 1 mps 760 mmHg 47%
    09:00 +19°C° 0 mm 1 mps 760 mmHg 44%
    10:00 +21°C° 0 mm 1 mps 760 mmHg 41%
    11:00 +22°C° 0 mm 1 mps 760 mmHg 38%
    12:00 +22°C° 0 mm 1 mps 760 mmHg 38%
    13:00 +22°C° 0 mm 1 mps 759 mmHg 38%
    14:00 +23°C° 0 mm 2 mps 759 mmHg 38%
    15:00 +21°C° 0 mm 2 mps 759 mmHg 40%
    16:00 +21°C° 0 mm 2 mps 758 mmHg 43%
    17:00 +21°C° 0 mm 2 mps 758 mmHg 46%
    18:00 +19°C° 0 mm 2 mps 758 mmHg 52%
    19:00 +17°C° 0 mm 2 mps 758 mmHg 59%
    20:00 +15°C° 0 mm 1 mps 758 mmHg 66%
    21:00 +14°C° 0 mm 2 mps 758 mmHg 68%
    22:00 +13°C° 0 mm 2 mps 758 mmHg 70%
    23:00 +12°C° 0 mm 2 mps 758 mmHg 72%

    Day after tomorrow, 27 May, Sunday

    Time Temperature Precipitation Wind Pressure Humidity
    00:00 +12°C° 0 mm 2 mps 758 mmHg 74%
    01:00 +10°C° 0 mm 2 mps 758 mmHg 75%
    02:00 +10°C° 0 mm 3 mps 758 mmHg 77%
    03:00 +10°C° 0 mm 3 mps 758 mmHg 76%
    04:00 +11°C° 0 mm 3 mps 758 mmHg 75%
    05:00 +11°C° 0 mm 3 mps 758 mmHg 74%
    06:00 +13°C° 0 mm 3 mps 758 mmHg 69%
    07:00 +16°C° 0 mm 3 mps 757 mmHg 64%
    08:00 +18°C° 0 mm 3 mps 757 mmHg 59%
    09:00 +19°C° 0 mm 4 mps 757 mmHg 55%
    10:00 +20°C° 0 mm 4 mps 756 mmHg 51%
    11:00 +22°C° 0 mm 4 mps 756 mmHg 47%
    12:00 +22°C° 0 mm 4 mps 755 mmHg 46%
    13:00 +23°C° 0 mm 4 mps 755 mmHg 45%
    14:00 +23°C° 0 mm 4 mps 754 mmHg 44%
    15:00 +23°C° 0 mm 4 mps 754 mmHg 48%
    16:00 +22°C° 0 mm 3 mps 754 mmHg 51%
    17:00 +22°C° 0 mm 3 mps 753 mmHg 55%
    18:00 +21°C° 0 mm 3 mps 753 mmHg 61%
    19:00 +19°C° 0 mm 2 mps 753 mmHg 67%
    20:00 +18°C° 0 mm 2 mps 753 mmHg 73%
    21:00 +16°C° 0 mm 2 mps 754 mmHg 76%
    22:00 +15°C° 0 mm 2 mps 754 mmHg 79%
    23:00 +14°C° 0 mm 2 mps 754 mmHg 82%

    28 May, Monday

    Time Temperature Precipitation Wind Pressure Humidity
    00:00 +13°C° 0 mm 2 mps 755 mmHg 85%
    01:00 +12°C° 0 mm 2 mps 755 mmHg 87%
    02:00 +9°C° 0 mm 2 mps 755 mmHg 90%
    03:00 +10°C° 0 mm 2 mps 756 mmHg 88%
    04:00 +10°C° 0 mm 2 mps 756 mmHg 86%
    05:00 +12°C° 0 mm 2 mps 756 mmHg 84%
    06:00 +13°C° 0 mm 2 mps 757 mmHg 74%
    07:00 +14°C° 0 mm 3 mps 757 mmHg 64%
    08:00 +16°C° 0 mm 3 mps 757 mmHg 55%
    09:00 +17°C° 0 mm 3 mps 758 mmHg 49%
    10:00 +18°C° 0 mm 3 mps 758 mmHg 43%
    11:00 +19°C° 0 mm 3 mps 758 mmHg 37%
    12:00 +19°C° 0 mm 3 mps 758 mmHg 36%
    13:00 +20°C° 0 mm 3 mps 758 mmHg 35%
    14:00 +20°C° 0 mm 3 mps 758 mmHg 35%
    15:00 +20°C° 0 mm 3 mps 758 mmHg 37%
    16:00 +19°C° 0 mm 3 mps 758 mmHg 39%
    17:00 +19°C° 0 mm 2 mps 758 mmHg 41%
    18:00 +17°C° 0 mm 2 mps 758 mmHg 48%
    19:00 +15°C° 0 mm 1 mps 758 mmHg 55%
    20:00 +13°C° 0 mm 1 mps 758 mmHg 61%
    21:00 +12°C° 0 mm 1 mps 758 mmHg 61%
    22:00 +11°C° 0 mm 1 mps 759 mmHg 62%
    23:00 +11°C° 0 mm 1 mps 759 mmHg 62%

    29 May, Tuesday

    Time Temperature Precipitation Wind Pressure Humidity
    00:00 +10°C° 0 mm 1 mps 759 mmHg 63%
    01:00 +10°C° 0 mm 1 mps 759 mmHg 64%
    02:00 +9°C° 0 mm 2 mps 759 mmHg 65%
    03:00 +9°C° 0 mm 2 mps 759 mmHg 65%
    04:00 +10°C° 0 mm 2 mps 759 mmHg 66%
    05:00 +10°C° 0 mm 2 mps 759 mmHg 66%
    06:00 +14°C° 0 mm 2 mps 759 mmHg 61%
    07:00 +16°C° 0 mm 2 mps 759 mmHg 55%
    08:00 +18°C° 0 mm 3 mps 759 mmHg 50%
    09:00 +19°C° 0 mm 3 mps 758 mmHg 46%
    10:00 +21°C° 0 mm 3 mps 758 mmHg 42%
    11:00 +22°C° 0 mm 3 mps 758 mmHg 39%
    12:00 +24°C° 0 mm 3 mps 757 mmHg 38%
    13:00 +24°C° 0 mm 3 mps 756 mmHg 38%
    14:00 +25°C° 0 mm 3 mps 756 mmHg 38%
    15:00 +25°C° 0 mm 3 mps 755 mmHg 41%
    16:00 +25°C° 0 mm 3 mps 755 mmHg 43%
    17:00 +24°C° 0 mm 3 mps 754 mmHg 46%
    18:00 +21°C° 0 mm 3 mps 753 mmHg 54%
    19:00 +19°C° 0 mm 3 mps 753 mmHg 61%
    20:00 +17°C° 0 mm 2 mps 753 mmHg 69%
    21:00 +16°C° 0 mm 2 mps 752 mmHg 71%
    22:00 +16°C° 0 mm 2 mps 752 mmHg 73%
    23:00 +15°C° 0 mm 2 mps 752 mmHg 75%

    30 May, Wednesday

    Time Temperature Precipitation Wind Pressure Humidity
    00:00 +14°C° 0 mm 3 mps 752 mmHg 78%
    01:00 +13°C° 0 mm 3 mps 751 mmHg 81%
    02:00 +13°C° 0 mm 3 mps 751 mmHg 84%
    03:00 +14°C° 0 mm 3 mps 751 mmHg 83%
    04:00 +14°C° 0 mm 3 mps 751 mmHg 82%
    05:00 +16°C° 0 mm 3 mps 750 mmHg 81%
    06:00 +17°C° 0 mm 4 mps 750 mmHg 72%
    07:00 +19°C° 0 mm 4 mps 749 mmHg 63%
    08:00 +21°C° 0 mm 4 mps 749 mmHg 54%
    09:00 +22°C° 0 mm 5 mps 749 mmHg 50%
    10:00 +25°C° 0 mm 5 mps 748 mmHg 46%
    11:00 +26°C° 0 mm 5 mps 748 mmHg 42%
    12:00 +27°C° 0 mm 5 mps 748 mmHg 41%
    13:00 +27°C° 0 mm 5 mps 747 mmHg 40%
    14:00 +28°C° 0 mm 5 mps 747 mmHg 39%
    15:00 +27°C° 0 mm 5 mps 746 mmHg 42%
    16:00 +27°C° 0 mm 4 mps 746 mmHg 45%
    17:00 +26°C° 0 mm 4 mps 746 mmHg 48%
    18:00 +25°C° 0 mm 4 mps 746 mmHg 53%
    19:00 +22°C° 0 mm 4 mps 746 mmHg 57%
    20:00 +21°C° 0 mm 4 mps 746 mmHg 61%
    21:00 +19°C° 0.1 mm 4 mps 746 mmHg 58%
    22:00 +17°C° 0.1 mm 3 mps 747 mmHg 54%
    23:00 +14°C° 0.1 mm 3 mps 747 mmHg 51%
    Show more